Killeen/Ft Hood, TX

4:27 PM CDT on May 25, 2017 (GMT -0500)
Hood Army Air Field

Weather History for KHLR - March, 2013

Change the Weather History Date:

Tuesday, March 5, 2013

  Actual Average Record
Temperature  
Mean Temperature 58 °F -  
Max Temperature 71 °F 65 °F 86 °F (1999)
Min Temperature 46 °F 46 °F 25 °F (2015)
Degree Days  
Heating Degree Days 6    
Growing Degree Days 8 (Base 50)    
Moisture  
Dew Point 20 °F    
Average Humidity 28    
Maximum Humidity 56    
Minimum Humidity 10    
Precipitation  
Precipitation 0.00 in - - ()
Sea Level Pressure  
Sea Level Pressure 30.22 in    
Wind  
Wind Speed 16 mph (NNW)    
Max Wind Speed 28 mph    
Max Gust Speed 38 mph    
Visibility 10 miles    
Events      
Averages and records for this station are not official NWS values.
T = Trace of Precipitation, MM = Missing Value Source: NWS Daily Summary

Daily Weather History Graph

Daily Weather History Graph

Search for Another Location

Airport or City:

Trip Planner

Search our weather history database for the weather conditions in past years. The results will help you decide how hot, cold, wet, or windy it might be!

Date:

Astronomy

Mar. 05, 2013 Rise Set
Actual Time 6:52 AM CST 6:32 PM CST
Civil Twilight 6:28 AM CST 6:56 PM CST
Nautical Twilight 6:00 AM CST 7:24 PM CST
Astronomical Twilight 5:32 AM CST 7:52 PM CST
Moon 1:49 AM CST (3/5) 12:29 PM CST (3/5)
Length of Visible Light 12h 28m
Length of Day
11h 39m
Last Quarter, 40% of the Moon is Illuminated
Mar 5
Last Quarter
Mar 11
New
Mar 19
First Quarter
Mar 27
Full
Apr 2
Last Quarter

Hourly Weather History & Observations

Time (CST) Temp. Windchill Dew Point Humidity Pressure Visibility Wind Dir Wind Speed Gust Speed Precip Events Conditions
12:56 AM 64.9 °F - 48.9 °F 56% 29.74 in 10.0 mi East 3.5 mph - N/A   Clear
1:37 AM 71.6 °F - 30.2 °F 22% 29.85 in 10.0 mi NW 21.9 mph 32.2 mph N/A   Clear
1:56 AM 66.9 °F - 41.0 °F 39% 29.91 in 10.0 mi NW 27.6 mph 38.0 mph N/A   Clear
2:56 AM 54.0 °F - 37.9 °F 55% 29.99 in 10.0 mi NW 24.2 mph 32.2 mph N/A   Clear
3:56 AM 52.0 °F - 35.1 °F 53% 30.12 in 10.0 mi NNW 21.9 mph 35.7 mph N/A   Clear
4:56 AM 51.1 °F - 33.1 °F 50% 30.11 in 10.0 mi NNW 23.0 mph 34.5 mph N/A   Scattered Clouds
5:56 AM 51.1 °F - 32.0 °F 48% 30.17 in 10.0 mi NNW 17.3 mph 27.6 mph N/A   Clear
6:56 AM 48.9 °F - 30.9 °F 50% 30.21 in 10.0 mi NNW 12.7 mph 24.2 mph N/A   Clear
7:56 AM 50.0 °F - 28.0 °F 43% 30.33 in 10.0 mi NNW 16.1 mph 24.2 mph N/A   Clear
8:56 AM 53.1 °F - 19.0 °F 26% 30.27 in 10.0 mi North 24.2 mph 34.5 mph N/A   Clear
9:56 AM 55.0 °F - 19.0 °F 24% 30.29 in 10.0 mi NNW 19.6 mph 31.1 mph N/A   Clear
10:56 AM 57.9 °F - 14.0 °F 18% 30.30 in 10.0 mi NNW 24.2 mph 34.5 mph N/A   Clear
11:56 AM 61.0 °F - 10.9 °F 14% 30.39 in 10.0 mi NW 21.9 mph 31.1 mph N/A   Clear
12:56 PM 63.0 °F - 10.0 °F 13% 30.29 in 10.0 mi NW 23.0 mph 31.1 mph N/A   Clear
1:56 PM 64.0 °F - 10.0 °F 12% 30.28 in 10.0 mi NNW 17.3 mph 26.5 mph N/A   Clear
2:56 PM 64.9 °F - 7.0 °F 10% 30.28 in 10.0 mi NNW 15.0 mph 24.2 mph N/A   Clear
3:56 PM 64.9 °F - 7.0 °F 10% 30.29 in 10.0 mi NNW 12.7 mph 20.7 mph N/A   Clear
4:56 PM 64.0 °F - 7.0 °F 11% 30.29 in 10.0 mi NNW 8.1 mph 18.4 mph N/A   Clear
5:56 PM 61.0 °F - 7.0 °F 12% 30.40 in 10.0 mi NNW 11.5 mph 20.7 mph N/A   Clear
6:56 PM 55.9 °F - 9.0 °F 15% 30.32 in 10.0 mi NNW 8.1 mph - N/A   Clear
7:56 PM 52.0 °F - 10.9 °F 19% 30.33 in 10.0 mi North 5.8 mph - N/A   Clear
8:56 PM 48.9 °F - 10.9 °F 22% 30.34 in 10.0 mi NNW 5.8 mph - N/A   Clear
9:56 PM 48.9 °F - 14.0 °F 25% 30.35 in 10.0 mi NNW 6.9 mph - N/A   Clear
10:56 PM 46.0 °F 41.4 °F 14.0 °F 28% 30.37 in 10.0 mi NW 9.2 mph - N/A   Clear
11:56 PM 46.9 °F - 14.0 °F 27% 30.36 in 10.0 mi NW 10.4 mph - N/A   Clear